When you browse on this site, cookies collect data to enhance your experience and personalize the content and advertising you see.
Visit our Privacy Policy to learn more. By continuing to use the site, you agree to this use of cookies and data.
  • Em Portugal
  • Lista de países
  • Para 7 dias
  • Temperatura da água
  • Mapa do tempo
  • Widgets de tempo
  • user-avatar
    Iniciar Sessão

    Previsão horária em Saurimo

    Hoje, 4 Junho, Quinta-feira

    Tempo Temperatura Precipitação Vento Pressão Humidade
    00:00 +20°C° 0 mm 1 m/s 671 mmHg 53%
    01:00 +18°C° 0 mm 2 m/s 671 mmHg 55%
    02:00 +18°C° 0 mm 2 m/s 670 mmHg 55%
    03:00 +18°C° 0 mm 1 m/s 670 mmHg 56%
    04:00 +18°C° 0 mm 1 m/s 670 mmHg 57%
    05:00 +18°C° 0 mm 2 m/s 671 mmHg 56%
    06:00 +18°C° 0 mm 2 m/s 671 mmHg 54%
    07:00 +19°C° 0 mm 3 m/s 672 mmHg 53%
    08:00 +22°C° 0 mm 3 m/s 673 mmHg 46%
    09:00 +26°C° 0 mm 3 m/s 673 mmHg 39%
    10:00 +29°C° 0 mm 3 m/s 674 mmHg 32%
    11:00 +30°C° 0 mm 3 m/s 674 mmHg 30%
    12:00 +31°C° 0 mm 3 m/s 673 mmHg 27%
    13:00 +34°C° 0 mm 2 m/s 673 mmHg 25%
    14:00 +32°C° 0 mm 2 m/s 672 mmHg 26%
    15:00 +32°C° 0 mm 2 m/s 672 mmHg 27%
    16:00 +31°C° 0 mm 2 m/s 671 mmHg 28%
    17:00 +29°C° 0 mm 1 m/s 671 mmHg 33%
    18:00 +26°C° 0 mm 1 m/s 671 mmHg 38%
    19:00 +24°C° 0 mm 1 m/s 671 mmHg 43%
    20:00 +23°C° 0 mm 1 m/s 671 mmHg 45%
    21:00 +22°C° 0 mm 1 m/s 672 mmHg 47%
    22:00 +22°C° 0 mm 1 m/s 672 mmHg 49%
    23:00 +21°C° 0 mm 1 m/s 671 mmHg 50%

    Amanhã, 5 Junho, Sexta-feira

    Tempo Temperatura Precipitação Vento Pressão Humidade
    00:00 +21°C° 0 mm 1 m/s 671 mmHg 51%
    01:00 +20°C° 0 mm 1 m/s 671 mmHg 52%
    02:00 +20°C° 0 mm 1 m/s 671 mmHg 53%
    03:00 +19°C° 0 mm 1 m/s 671 mmHg 54%
    04:00 +18°C° 0 mm 2 m/s 671 mmHg 55%
    05:00 +18°C° 0 mm 2 m/s 672 mmHg 54%
    06:00 +19°C° 0 mm 2 m/s 672 mmHg 53%
    07:00 +19°C° 0 mm 2 m/s 673 mmHg 52%
    08:00 +22°C° 0 mm 3 m/s 673 mmHg 44%
    09:00 +27°C° 0 mm 3 m/s 674 mmHg 37%
    10:00 +30°C° 0 mm 3 m/s 674 mmHg 29%
    11:00 +31°C° 0 mm 3 m/s 674 mmHg 28%
    12:00 +33°C° 0 mm 3 m/s 673 mmHg 26%
    13:00 +34°C° 0 mm 2 m/s 673 mmHg 24%
    14:00 +34°C° 0 mm 2 m/s 672 mmHg 25%
    15:00 +34°C° 0 mm 2 m/s 672 mmHg 26%
    16:00 +32°C° 0 mm 2 m/s 671 mmHg 27%
    17:00 +29°C° 0 mm 2 m/s 671 mmHg 32%
    18:00 +27°C° 0 mm 2 m/s 671 mmHg 37%
    19:00 +24°C° 0 mm 2 m/s 671 mmHg 42%
    20:00 +23°C° 0 mm 2 m/s 671 mmHg 43%
    21:00 +22°C° 0 mm 1 m/s 672 mmHg 45%
    22:00 +21°C° 0 mm 1 m/s 672 mmHg 47%
    23:00 +21°C° 0 mm 1 m/s 671 mmHg 47%

    Depois de amanhã, 6 Junho, Sábado

    Tempo Temperatura Precipitação Vento Pressão Humidade
    00:00 +19°C° 0 mm 2 m/s 671 mmHg 48%
    01:00 +19°C° 0 mm 2 m/s 671 mmHg 48%
    02:00 +19°C° 0 mm 2 m/s 671 mmHg 48%
    03:00 +18°C° 0 mm 2 m/s 671 mmHg 48%
    04:00 +18°C° 0 mm 2 m/s 671 mmHg 48%
    05:00 +18°C° 0 mm 2 m/s 671 mmHg 47%
    06:00 +19°C° 0 mm 3 m/s 672 mmHg 46%
    07:00 +19°C° 0 mm 3 m/s 673 mmHg 45%
    08:00 +22°C° 0 mm 3 m/s 673 mmHg 38%
    09:00 +26°C° 0 mm 4 m/s 674 mmHg 32%
    10:00 +30°C° 0 mm 4 m/s 674 mmHg 26%
    11:00 +32°C° 0 mm 4 m/s 674 mmHg 24%
    12:00 +33°C° 0 mm 3 m/s 674 mmHg 22%
    13:00 +34°C° 0 mm 3 m/s 673 mmHg 21%
    14:00 +34°C° 0 mm 3 m/s 673 mmHg 22%
    15:00 +32°C° 0 mm 2 m/s 672 mmHg 22%
    16:00 +32°C° 0 mm 2 m/s 672 mmHg 23%
    17:00 +29°C° 0 mm 2 m/s 672 mmHg 28%
    18:00 +26°C° 0 mm 2 m/s 671 mmHg 32%
    19:00 +23°C° 0 mm 1 m/s 671 mmHg 37%
    20:00 +22°C° 0 mm 1 m/s 671 mmHg 39%
    21:00 +21°C° 0 mm 1 m/s 671 mmHg 40%
    22:00 +19°C° 0 mm 2 m/s 671 mmHg 42%
    23:00 +19°C° 0 mm 2 m/s 671 mmHg 43%

    7 Junho, Domingo

    Tempo Temperatura Precipitação Vento Pressão Humidade
    00:00 +18°C° 0 mm 2 m/s 671 mmHg 43%
    01:00 +18°C° 0 mm 2 m/s 671 mmHg 43%
    02:00 +17°C° 0 mm 2 m/s 671 mmHg 44%
    03:00 +17°C° 0 mm 2 m/s 671 mmHg 45%
    04:00 +17°C° 0 mm 2 m/s 671 mmHg 46%
    05:00 +17°C° 0 mm 3 m/s 671 mmHg 45%
    06:00 +18°C° 0 mm 3 m/s 672 mmHg 45%
    07:00 +18°C° 0 mm 3 m/s 672 mmHg 44%
    08:00 +21°C° 0 mm 4 m/s 673 mmHg 39%
    09:00 +26°C° 0 mm 4 m/s 674 mmHg 35%
    10:00 +29°C° 0 mm 4 m/s 674 mmHg 30%
    11:00 +30°C° 0 mm 4 m/s 674 mmHg 27%
    12:00 +31°C° 0 mm 3 m/s 673 mmHg 25%
    13:00 +32°C° 0 mm 2 m/s 673 mmHg 22%
    14:00 +32°C° 0 mm 2 m/s 672 mmHg 23%
    15:00 +31°C° 0 mm 2 m/s 672 mmHg 23%
    16:00 +31°C° 0 mm 2 m/s 671 mmHg 24%
    17:00 +28°C° 0 mm 2 m/s 671 mmHg 29%
    18:00 +25°C° 0 mm 2 m/s 671 mmHg 33%
    19:00 +22°C° 0 mm 1 m/s 671 mmHg 38%
    20:00 +21°C° 0 mm 2 m/s 671 mmHg 39%
    21:00 +20°C° 0 mm 2 m/s 671 mmHg 41%
    22:00 +19°C° 0 mm 2 m/s 671 mmHg 42%
    23:00 +18°C° 0 mm 2 m/s 671 mmHg 43%

    8 Junho, Segunda-feira

    Tempo Temperatura Precipitação Vento Pressão Humidade
    00:00 +18°C° 0 mm 2 m/s 671 mmHg 44%
    01:00 +17°C° 0 mm 2 m/s 671 mmHg 45%
    02:00 +17°C° 0 mm 2 m/s 670 mmHg 46%
    03:00 +17°C° 0 mm 2 m/s 670 mmHg 47%
    04:00 +16°C° 0 mm 2 m/s 670 mmHg 47%
    05:00 +17°C° 0 mm 3 m/s 671 mmHg 47%
    06:00 +18°C° 0 mm 3 m/s 671 mmHg 47%
    07:00 +18°C° 0 mm 3 m/s 671 mmHg 47%
    08:00 +21°C° 0 mm 4 m/s 672 mmHg 41%
    09:00 +25°C° 0 mm 4 m/s 672 mmHg 35%
    10:00 +28°C° 0 mm 4 m/s 673 mmHg 29%
    11:00 +29°C° 0 mm 4 m/s 672 mmHg 27%
    12:00 +30°C° 0 mm 3 m/s 672 mmHg 25%
    13:00 +31°C° 0 mm 2 m/s 671 mmHg 23%
    14:00 +31°C° 0 mm 2 m/s 671 mmHg 23%
    15:00 +31°C° 0 mm 2 m/s 671 mmHg 23%
    16:00 +30°C° 0 mm 2 m/s 670 mmHg 24%
    17:00 +28°C° 0 mm 2 m/s 670 mmHg 28%
    18:00 +25°C° 0 mm 2 m/s 670 mmHg 33%
    19:00 +21°C° 0 mm 2 m/s 670 mmHg 38%
    20:00 +20°C° 0 mm 2 m/s 670 mmHg 39%
    21:00 +20°C° 0 mm 2 m/s 670 mmHg 40%
    22:00 +19°C° 0 mm 2 m/s 671 mmHg 40%
    23:00 +18°C° 0 mm 2 m/s 670 mmHg 42%

    9 Junho, Terça-feira

    Tempo Temperatura Precipitação Vento Pressão Humidade
    00:00 +18°C° 0 mm 2 m/s 670 mmHg 44%
    01:00 +17°C° 0 mm 2 m/s 670 mmHg 45%
    02:00 +17°C° 0 mm 2 m/s 670 mmHg 46%
    03:00 +16°C° 0 mm 2 m/s 670 mmHg 46%
    04:00 +16°C° 0 mm 2 m/s 670 mmHg 47%
    05:00 +16°C° 0 mm 2 m/s 670 mmHg 47%
    06:00 +17°C° 0 mm 3 m/s 670 mmHg 46%
    07:00 +18°C° 0 mm 3 m/s 671 mmHg 46%
    08:00 +21°C° 0 mm 3 m/s 672 mmHg 40%
    09:00 +25°C° 0 mm 3 m/s 672 mmHg 34%
    10:00 +28°C° 0 mm 4 m/s 673 mmHg 28%
    11:00 +30°C° 0 mm 3 m/s 672 mmHg 25%
    12:00 +31°C° 0 mm 3 m/s 672 mmHg 22%
    13:00 +32°C° 0 mm 2 m/s 672 mmHg 19%
    14:00 +32°C° 0 mm 2 m/s 671 mmHg 20%
    15:00 +31°C° 0 mm 2 m/s 671 mmHg 20%
    16:00 +31°C° 0 mm 2 m/s 670 mmHg 21%
    17:00 +28°C° 0 mm 2 m/s 670 mmHg 26%
    18:00 +25°C° 0 mm 1 m/s 670 mmHg 30%
    19:00 +22°C° 0 mm 1 m/s 670 mmHg 35%
    20:00 +21°C° 0 mm 1 m/s 670 mmHg 36%
    21:00 +19°C° 0 mm 2 m/s 670 mmHg 37%
    22:00 +19°C° 0 mm 2 m/s 670 mmHg 38%
    23:00 +19°C° 0 mm 1 m/s 670 mmHg 40%
    Mostrar mais